User: anonymous   Login
Location: Unspecified
(35.6961°N, 0.0000°E)
Time: 03:49:45
(UTC+00:00)
Language:

Vanguard 1 Rocket - Orbit

View from above orbital plane
View from above orbital plane
View from above satellite
View from above satellite

Ground track
Ground track

The orbit data is extracted from the following two-line orbital elements,

1    16U 58002A   19146.48146989 -.00000026  00000-0 -97069-5 0  9998
2    16  34.2583 194.9229 2025820  41.8733 332.0261 10.48746849418095
Epoch (UTC): 26 May 2019 11:33:18
Eccentricity: 0.2025820
inclination: 34.2583°
perigee height: 652 km
apogee height: 4224 km
right ascension of ascending node: 194.9229°
argument of perigee: 41.8733°
revolutions per day: 10.48746849
mean anomaly at epoch: 332.0261°
orbit number at epoch: 41809

The dashed part of the orbit path shows where the satellite is in the earth's shadow,  

DLR